Location: ????? ????
(37.9717°N, 23.4051°E)
Time: 12:25:19
(UTC+00:00)

Hubble Space Telescope - Pass Details

Date: 18 April 2024
Orbit: 512 x 516 km, 28.5° (Epoch: 19 May)

Event Time Altitude Azimuth Distance (km) Brightness Sun altitude
Rises 17:49:49 0° 252° (WSW) 2,604 5.1 -9.1°
Reaches altitude 10° 17:52:49 10° 229° (SW) 1,717 3.7 -9.7°
Maximum altitude 17:55:06 15° 193° (SSW) 1,437 2.9 -10.1°
Drops below altitude 10° 17:57:22 10° 158° (SSE) 1,715 2.9 -10.5°
Enters shadow 17:57:49 - 153° (SSE) 1,823 3.0 -10.6°
